Powrót do katalogu

COSMOS 375 DEB

AktywnyLEO
NORAD 4724·DEBRIS·🇷🇺 Russia

Wystrzelony Oct 30, 1970 z Baikonur Cosmodrome

Loading…

Następne Przeloty (najbliższe 24 godziny)

TLE

ŚwieżeSource: Space-Track

Epoka: Sep 14, 2026, 11:51 UTC

1 04724U 70091V   26257.49412118  .00001510  00000-0  26631-3 0  9994
2 04724  62.7768 228.8901 0400092 174.6351 185.9203 14.30461356771946

Śledź COSMOS 375 DEB w czasie rzeczywistym z AllMySat

Download on the App Store